COSMOS 1275 DEB, 12735

Orbit data source: Space-Track

COSMOS 1275 DEB, 12735 is space debris in LEO originally from a launch on Thu, 04 Jun 1981 UTC launched from the Plesetsk Missile And Space Complex (PKMTR). Debris objects in space refer to the collection of defunct objects orbiting the Earth. Examples of debris include non-operational satellites, rocket bodies, and fragments generated from explosions, collisions, or faulty payload assembly.

Loading next visibility...
Identifier
12735, 1981-053CC
Orbit
LEO
Country
Flag of CISCIS
Related business
Manufacturer
Unknown
Mission
Spacecraft
Bus & Motor
Unknown
Mass
Unknown
Launch date (UTC)
1981-06-04 (45 years ago)
Launch vehicle
Unknown
Launch site
Plesetsk Missile And Space Complex (PKMTR)
Object type
Payload
Rocket body
Debris
Shape & HBR
Unknown shape, 0.2 m
Radar Cross Section
Small (<0.1 m²)

Expand to show TLE details & history
Last TLE update: 14 hours ago

TLE from 14 hours ago
0 COSMOS 1275 DEB
1 12735U 81053CC  26119.41394547  .00000473  00000-0  49506-3 0  9992
2 12735  83.1383  99.3404 0100627 137.4168  25.9686 13.70818412227621
Epoch: 2026-04-29T09:56Z
TLE epoch observation values (Epoch: 2026-04-29T09:56:04.888Z)
Latitude
15.96638°
Longitude
-89.01792°
Altitude
932.284 km
Speed
7.42 km/s
True Right ascension
18h 29m 30s
True Declination
15° 52' 40"
Sunlit
Object was in daylight at epoch
Visualization orbit readout
Latitude
Unknown
Longitude
Unknown
Altitude
Unknown
Speed
Unknown
Apparent Right ascension
Unknown
Apparent Declination
Unknown
Sunlit
N/A
Visualization observer readout
Local Sidereal Time
07:46:38
Azimuth
Unknown
Elevation
Unknown
Doppler factor
Unknown
Orbital elements
Apogee altitude
1,067.962 km
Perigee altitude
919.6 km
Semi-major axis
7,371.918 km
Eccentricity
0.01006
Inclination
83.1383°
RAAN
99.3404°
Arg. of periapsis
137.4168°
True anomaly
26.47928°
Mean anomaly
25.9686°
Eccentric anomaly
26.22336°
Mean motion
3.42904 °/min
Orbital period
104.99 mins
BSTAR
0.00049506
Loading maneuver chart data...
Computing Atmospheric mass density...
Loading historical data...
Loading historical data...
Loading historical data...
Loading historical data...
Loading historical data...
Loading historical data...
Loading historical data...

Documentation

Showing up to 5 results
|